Location: Bacharowice
(49.9333°N, 19.5833°E)
Time: 03:57:14
(UTC+00:00)

ATLAS 5 CENTAUR R/B - Pass Details

Date: 11 May 2021
Orbit: 513 x 1144 km, 63.3° (Epoch: 18 June)

Event Time Altitude Azimuth Distance (km) Brightness Sun altitude
Rises 18:55:25 0° 315° (NW) 3,201 7.7 -6.2°
Reaches altitude 10° 18:57:39 10° 313° (NW) 2,363 6.4 -6.5°
Maximum altitude 19:03:07 66° 232° (SW) 978 2.6 -7.1°
Drops below altitude 10° 19:09:34 10° 152° (SSE) 2,781 4.3 -7.9°
Enters shadow 19:10:16 - 151° (SSE) 3,032 4.5 -8.0°
